Flag for Germany Weather past 2 weeks in Bühl, Baden-Württemberg, Germany

Now
59 °F

Broken clouds.


Feels Like: 57 °F
Forecast: 43 / 61 °F
Wind: 9 mph from Southwest

Location: Karlsruhe - Baden Wurttemberg

Current Time: Sep 22, 2014 at 5:10:52 PM

Latest Report: Sep 22, 2014 at 4:20 PM


Visibility: 5 mi

Pressure: 30.09 "Hg

Humidity: 59%

Dew point: 45 °F

Location of BühlLocation

Historic Weather in Bühl — Graph

°F

Bühl temperature yesterday

Maximum temperature yesterday: 68 °F (at 2:20 PM)
Minimum temperature yesterday: 59 °F (at 7:20 PM)
Average temperature yesterday: 63 °F

Past Weeks' High & Low Weather Summary

 TemperatureHumidityPressure
High79 °F (Sep 19, 2:50 PM)94% (Sep 12, 4:50 AM)30.18 "Hg (Sep 12, 4:50 AM)
Low46 °F (Sep 22, 7:20 AM)46% (Sep 10, 3:50 PM)29.83 "Hg (Sep 17, 4:20 PM)
Average63 °F78%30.00 "Hg
* Reported Sep 7 3:20 PM — Sep 22 3:50 PM, Bühl, Weather by CustomWeather, © 2014

Note: Actual official high and low records may vary slightly from our data, if they occured in-between our weather recording intervals... More about our weather records

Advertising

Bühl weather history for previous 24 hours

 ConditionsComfort  
Time TempWeatherWind HumidityBarometerVisibility
3:50 PM
Sep 22
59 °FBroken clouds.7 mph59%30.09 "Hg5 mi
3:20 PM59 °FPartly sunny.5 mph55%30.09 "HgN/A
2:50 PM59 °FBroken clouds.6 mph55%30.09 "Hg6 mi
2:20 PM59 °FBroken clouds.3 mph59%30.09 "HgN/A
1:50 PM59 °FPartly sunny.8 mph63%30.12 "HgN/A
1:20 PM57 °FPartly sunny.8 mph67%30.12 "HgN/A
12:50 PM57 °FBroken clouds.7 mph67%30.12 "HgN/A
12:20 PM57 °FBroken clouds.6 mph72%30.15 "Hg6 mi
11:50 AM55 °FBroken clouds.7 mph82%30.15 "Hg5 mi
11:20 AM55 °FBroken clouds.7 mph88%30.15 "Hg5 mi
10:50 AM54 °FPartly sunny.6 mph88%30.15 "Hg6 mi
10:20 AM54 °FBroken clouds.6 mph88%30.15 "Hg6 mi
9:50 AM52 °FBroken clouds.6 mph88%30.15 "Hg5 mi
9:20 AM52 °FBroken clouds.6 mph88%30.15 "Hg5 mi
8:50 AM50 °FPartly sunny.5 mph94%30.15 "Hg5 mi
8:20 AM48 °FPartly sunny.5 mph94%30.15 "Hg5 mi
7:50 AM48 °FPassing clouds.5 mph87%30.15 "Hg5 mi
7:20 AM46 °FLight fog.5 mph93%30.12 "Hg5 mi
6:50 AM48 °FLight fog.1 mph94%30.15 "Hg5 mi
6:20 AM48 °FFog.3 mph87%30.12 "HgN/A
5:50 AM48 °FFog.3 mph94%30.12 "HgN/A
5:20 AM50 °FClear.2 mph88%30.12 "Hg10 mi
4:50 AM50 °FClear.2 mph94%30.12 "Hg10 mi
11:20 PM
Sep 21
59 °FPassing clouds.3 mph88%30.09 "HgN/A
10:20 PM59 °FPassing clouds.2 mph88%30.09 "HgN/A
9:50 PM59 °FPassing clouds.2 mph88%30.07 "HgN/A
9:20 PM59 °FLight rain. Partly cloudy.2 mph88%30.07 "HgN/A
8:20 PM59 °FLight rain. Broken clouds.3 mph94%30.04 "HgN/A
7:50 PM59 °FRain showers. Broken clouds.2 mph94%30.04 "Hg4 mi
7:20 PM59 °FRain showers. Broken clouds.3 mph94%30.04 "Hg4 mi
6:50 PM61 °FSprinkles. Broken clouds.3 mph88%30.01 "Hg4 mi
6:20 PM61 °FSprinkles. Broken clouds.6 mph88%30.01 "Hg4 mi
5:50 PM61 °FScattered showers. Broken clouds.8 mph88%29.98 "Hg5 mi
5:20 PM63 °FSprinkles. Broken clouds.5 mph88%29.98 "Hg4 mi
Weather by CustomWeather, © 2014

See weather overviewHow to use our weather pages